Location: M?digepalle
(16.1753°N, 80.3496°E)
Time: 09:04:58
(UTC+00:00)

ATLAS CENTAUR R/B - Pass Details

Date: 29 October 2020
Orbit: 478 x 667 km, 64.7° (Epoch: 22 November)

Event Time Altitude Azimuth Distance (km) Brightness Sun altitude
Exits shadow 23:52:58 14° 269° (W) 1,548 3.0 -10.7°
Maximum altitude 23:54:30 17° 296° (WNW) 1,389 2.8 -10.3°
Drops below altitude 10° 23:57:07 10° 338° (NNW) 1,749 3.6 -9.7°
Sets 23:59:50 0° 359° (N) 2,602 4.6 -9.1°
